Home > Time Zones > World Clock > Weather > Spain > Ibiza > Past weeks

Flag for Spain Weather past 2 weeks in Ibiza, Ibiza, Spain

Now
75 °F

Passing clouds.


Feels Like: 77 °F
Forecast: 71 / 80 °F
Wind: No wind

Location: Ibiza / Es Codola

Current Time: Sep 21, 2014 at 6:58:00 AM

Latest Report: Sep 21, 2014 at 6:30 AM


Visibility: N/A

Pressure: 30.01 "Hg

Humidity: 74%

Dew point: 66 °F

Location of IbizaLocation

Historic Weather in Ibiza — Graph

°F

Ibiza temperature yesterday

Maximum temperature yesterday: 88 °F (at 2:00 PM)
Minimum temperature yesterday: 72 °F (at 6:00 AM)
Average temperature yesterday: 78 °F

Past Weeks' High & Low Weather Summary

 TemperatureHumidityPressure
High90 °F (Sep 12, 3:00 PM)94% (Sep 6, 7:00 AM)30.07 "Hg (Sep 6, 7:00 AM)
Low70 °F (Sep 16, 6:30 AM)33% (Sep 18, 3:30 PM)29.74 "Hg (Sep 16, 7:00 PM)
Average80 °F74%29.90 "Hg
* Reported Sep 6 5:00 AM — Sep 21 5:30 AM, Ibiza, Weather by CustomWeather, © 2014

Note: Actual official high and low records may vary slightly from our data, if they occured in-between our weather recording intervals... More about our weather records

Advertising

Ibiza weather history for previous 24 hours

 ConditionsComfort  
Time TempWeatherWind HumidityBarometerVisibility
5:30 AM
Sep 21
75 °FPassing clouds.1 mph78%30.01 "HgN/A
5:00 AM77 °FPassing clouds.1 mph74%30.01 "HgN/A
4:30 AM77 °FPassing clouds.1 mph69%30.01 "HgN/A
4:00 AM79 °FPassing clouds.6 mph70%30.04 "HgN/A
3:30 AM79 °FPassing clouds.8 mph65%30.04 "HgN/A
3:00 AM79 °FPassing clouds.9 mph65%30.04 "HgN/A
2:30 AM79 °FPassing clouds.9 mph65%30.07 "HgN/A
2:00 AM79 °FPassing clouds.10 mph70%30.07 "HgN/A
1:30 AM79 °FPassing clouds.9 mph74%30.07 "HgN/A
1:00 AM79 °FPassing clouds.9 mph74%30.07 "HgN/A
12:30 AM79 °FPassing clouds.5 mph74%30.07 "HgN/A
12:00 AM79 °FPassing clouds.6 mph74%30.07 "HgN/A
11:30 PM
Sep 20
77 °FPassing clouds.5 mph79%30.07 "HgN/A
11:00 PM77 °FPassing clouds.5 mph79%30.04 "HgN/A
10:30 PM77 °FPassing clouds.3 mph74%30.04 "HgN/A
10:00 PM77 °FPassing clouds.2 mph79%30.04 "HgN/A
9:30 PM79 °FPassing clouds.2 mph74%30.04 "HgN/A
9:00 PM79 °FPassing clouds.3 mph74%30.01 "HgN/A
8:30 PM79 °FSunny.5 mph74%30.01 "Hg10 mi
8:00 PM81 °FSunny.5 mph70%30.01 "Hg10 mi
7:30 PM81 °FPassing clouds.5 mph70%30.01 "HgN/A
3:30 PM88 °FPassing clouds.5 mph35%30.01 "HgN/A
3:00 PM88 °FPassing clouds.3 mph35%30.01 "HgN/A
2:30 PM86 °FPassing clouds.7 mph52%30.01 "HgN/A
2:00 PM88 °FPassing clouds.5 mph46%30.01 "HgN/A
1:30 PM82 °FPassing clouds.7 mph70%30.01 "HgN/A
1:00 PM82 °FPassing clouds.5 mph70%30.01 "HgN/A
12:30 PM82 °FPassing clouds.7 mph70%30.01 "HgN/A
12:00 PM82 °FPassing clouds.6 mph70%30.01 "HgN/A
11:30 AM82 °FPassing clouds.3 mph66%30.01 "HgN/A
11:00 AM82 °FPassing clouds.6 mph70%30.01 "HgN/A
10:30 AM82 °FPassing clouds.1 mph66%30.01 "HgN/A
10:00 AM81 °FPassing clouds.No wind74%30.01 "HgN/A
9:30 AM79 °FPassing clouds.2 mph70%29.98 "HgN/A
9:00 AM77 °FPassing clouds.1 mph74%29.98 "HgN/A
8:30 AM75 °FPassing clouds.5 mph74%29.98 "HgN/A
8:00 AM73 °FPassing clouds.6 mph78%29.98 "HgN/A
7:30 AM72 °FPassing clouds.2 mph83%29.98 "HgN/A
7:00 AM72 °FPassing clouds.No wind83%29.95 "HgN/A
6:30 AM72 °FPassing clouds.3 mph83%29.92 "HgN/A
6:00 AM72 °FPassing clouds.No wind88%29.95 "HgN/A
Weather by CustomWeather, © 2014

See weather overviewHow to use our weather pages